Location: Fort Wayne
(41.1310°N, 85.1290°W)
Time: 10:56:25
(UTC-04:00)

Amateur Radio Satellites - All Passes

Search period start: 30 July 2016 10:26
Search period end: 31 July 2016 10:26
Location: Fort Wayne, 41.1310°N, 85.1290°W

Satellite Date Start Highest point End Downlink Frequencies (MHz)
Time Altitude Azimuth
UNISAT 6 30 Jul 10:29:13 10:33:21 33° 69° (ENE) 10:37:33 437.425
COMPASS 1 30 Jul 10:29:23 10:33:28 62° 286° (WNW) 10:37:32 437.405
Cosmos 2491 30 Jul 10:37:15 10:45:23 45° 272° (W) 10:53:32 435.465 / 435.565
DELFI C3 30 Jul 10:48:14 10:51:33 25° 95° (E) 10:54:50 145.870
AUBIESAT-1 30 Jul 10:49:12 10:51:04 12° 94° (E) 10:52:54 437.475
AAUSAT CUBESAT 2 30 Jul 10:54:25 10:58:16 40° 288° (WNW) 11:02:07 437.432
CINEMA 3 30 Jul 10:56:19 10:59:44 19° 296° (WNW) 11:03:06 145.822/145.860
FUNcube-1 30 Jul 10:59:11 11:03:40 77° 102° (ESE) 11:07:59 145.935
ZACube-1 30 Jul 11:02:05 11:06:35 89° 102° (ESE) 11:10:57 437.345
ANTELSAT 30 Jul 11:06:56 11:11:36 79° 75° (ENE) 11:16:19 437.575/2403.000
UWE-3 30 Jul 11:09:33 11:14:00 50° 287° (WNW) 11:18:18 435.000/436.395/437.385
HO-68 30 Jul 11:11:58 11:18:09 32° 299° (WNW) 11:24:19 435.675
QB50P1 30 Jul 11:20:42 11:23:30 17° 65° (ENE) 11:26:20 145.935-145.965
POPSAT HIP 1 30 Jul 11:27:09 11:30:15 20° 66° (ENE) 11:33:23 437.405
Cosmos 2504 30 Jul 11:33:08 11:41:55 71° 94° (E) 11:50:39 435.465 / 435.565
Oscar 11 30 Jul 11:37:10 11:41:08 36° 289° (WNW) 11:45:04 145.826/435.025
CUBEBUG 2 30 Jul 11:40:04 11:43:18 19° 295° (WNW) 11:46:30 437.445
HUMSAT D 30 Jul 11:46:05 11:50:13 57° 100° (E) 11:54:15 437.325/437.525
TIGRISAT 30 Jul 11:47:57 11:52:20 41° 262° (W) 11:56:47 435.000
QB50P2 30 Jul 11:48:05 11:51:58 35° 70° (ENE) 11:55:53 145.880/145.840
JAS-2 30 Jul 11:48:33 11:51:47 16° 62° (ENE) 11:54:54 435.910
POLYITAN 1 30 Jul 11:50:41 11:54:35 36° 71° (ENE) 11:58:32 437.675
M-CUBED/EXP-1 PRIME 30 Jul 11:58:11 12:02:56 80° 108° (ESE) 12:07:35 437.505
YUBILEINY 30 Jul 12:04:59 12:12:34 32° 291° (WNW) 12:20:16 435.215
UNISAT 6 30 Jul 12:06:12 12:10:04 26° 266° (W) 12:13:59 437.425
AUBIESAT-1 30 Jul 12:21:17 12:25:56 72° 290° (WNW) 12:30:29 437.475
DELFI C3 30 Jul 12:23:09 12:26:18 23° 291° (WNW) 12:29:26 145.870
RS-15 30 Jul 12:29:29 12:38:30 23° 5° (N) 12:47:40 29.354- 29.394
NANOSAT C BR1 30 Jul 12:30:04 12:34:18 86° 258° (WSW) 12:38:36 145.865
AISAT 30 Jul 12:30:58 12:34:00 18° 93° (E) 12:37:00 437.250
DUCHIFAT 1 30 Jul 12:32:35 12:36:48 86° 257° (WSW) 12:41:06 145.980
BUGSAT 1 30 Jul 12:32:43 12:36:32 40° 71° (ENE) 12:40:27 437.445
FUNcube-1 30 Jul 12:38:05 12:39:12 11° 299° (WNW) 12:40:19 145.935
50 SAT 30 Jul 12:47:25 12:50:18 23° 95° (E) 12:53:12 437.505
ANTELSAT 30 Jul 12:48:18 12:48:51 10° 272° (W) 12:49:24 437.575/2403.000
SPROUT 30 Jul 12:52:10 12:54:12 13° 91° (E) 12:56:14 437.525
QB50P1 30 Jul 12:54:55 12:58:57 42° 261° (W) 13:03:01 145.935-145.965
POPSAT HIP 1 30 Jul 13:01:52 13:05:47 36° 262° (W) 13:09:45 437.405
Oscar 19 30 Jul 13:12:24 13:16:18 22° 64° (ENE) 13:20:12 437.125/150
CUBEBUG 1 30 Jul 13:12:43 13:17:04 56° 100° (E) 13:21:25 437.445
AIST 1 30 Jul 13:17:18 13:20:44 24° 89° (E) 13:24:11
AO-85 30 Jul 13:19:26 13:24:12 33° 114° (ESE) 13:28:48 145.980
ESTCUBE 1 30 Jul 13:19:35 13:24:05 82° 284° (WNW) 13:28:35 437.505/2401.250
VELOX 1 30 Jul 13:20:58 13:25:22 58° 101° (E) 13:29:46 145.980
HUMSAT D 30 Jul 13:23:30 13:25:19 13° 297° (WNW) 13:27:09 437.325/437.525
Gurwin Techsat 1B 30 Jul 13:23:36 13:26:10 14° 59° (ENE) 13:28:44 435.225
QB50P2 30 Jul 13:24:46 13:27:52 19° 267° (W) 13:30:59 145.880/145.840
POLYITAN 1 30 Jul 13:27:26 13:30:30 19° 267° (W) 13:33:36 437.675
Cosmos 2504 30 Jul 13:28:50 13:36:02 27° 293° (WNW) 13:43:11 435.465 / 435.565
JAS-2 30 Jul 13:30:29 13:36:24 72° 257° (WSW) 13:41:48 435.910
M-CUBED/EXP-1 PRIME 30 Jul 13:34:31 13:36:47 13° 304° (NW) 13:39:02 437.505
DX 1 30 Jul 13:53:07 13:57:31 87° 282° (WNW) 14:01:54 434.975-435.025
UKube-1 30 Jul 13:59:53 14:04:15 88° 104° (ESE) 14:08:35 .
AISAT 30 Jul 14:06:25 14:10:39 43° 288° (WNW) 14:14:51 437.250
BUGSAT 1 30 Jul 14:09:30 14:12:05 16° 268° (W) 14:14:43 437.445
GONETS M04 30 Jul 14:20:36 14:24:58 15° 75° (ENE) 14:29:18
50 SAT 30 Jul 14:21:04 14:23:49 21° 291° (WNW) 14:26:35 437.505
SPROUT 30 Jul 14:26:14 14:30:28 54° 286° (WNW) 14:34:40 437.525
Cosmos 2499 30 Jul 14:29:03 14:31:41 12° 74° (ENE) 14:34:18 435.465 / 435.565
RS-15 30 Jul 14:44:20 14:55:47 41° 38° (NE) 15:07:08 29.354- 29.394
AO-7 30 Jul 14:48:34 14:55:04 26° 54° (NE) 15:01:33 29.400- 29.500
Oscar 19 30 Jul 14:50:25 14:55:18 45° 261° (W) 15:00:13 437.125/150
CUBEBUG 1 30 Jul 14:50:29 14:52:53 15° 297° (WNW) 14:55:17 437.445
ITAMSAT 1 30 Jul 14:54:00 14:58:30 30° 66° (ENE) 15:02:59 435.822/435.867
AIST 1 30 Jul 14:54:40 14:58:13 26° 286° (WNW) 15:01:48
VELOX 1 30 Jul 14:58:58 15:01:21 14° 297° (WNW) 15:03:44 145.980
AO-85 30 Jul 14:59:39 15:04:38 38° 310° (NW) 15:09:24 145.980
Gurwin Techsat 1B 30 Jul 15:00:04 15:05:23 84° 258° (WSW) 15:10:44 435.225
TISAT 1 30 Jul 15:08:09 15:12:25 81° 286° (WNW) 15:16:39 437.305
SWISSCUBE 30 Jul 15:17:13 15:21:07 25° 95° (E) 15:25:00 437.505
CUSAT 1 30 Jul 15:35:03 15:38:15 58° 261° (W) 15:42:19 437.405
BEESAT 30 Jul 15:37:48 15:42:12 36° 98° (E) 15:46:33 436.000
ITUPSAT 1 30 Jul 16:03:11 16:07:56 65° 101° (ESE) 16:12:39 437.325
GONETS M04 30 Jul 16:11:36 16:20:16 81° 95° (E) 16:29:01
Cosmos 2499 30 Jul 16:14:25 16:23:10 66° 92° (E) 16:31:38 435.465 / 435.565
SO-50 30 Jul 16:16:08 16:20:13 29° 47° (NE) 16:24:13 436.795
KKS-1 30 Jul 16:23:12 16:24:50 12° 90° (E) 16:26:27 437.445
ITAMSAT 1 30 Jul 16:33:08 16:37:51 34° 263° (W) 16:42:35 435.822/435.867
DANDE 30 Jul 16:33:35 16:36:02 30° 263° (W) 16:38:49 436.750
AO-7 30 Jul 16:38:38 16:47:00 77° 253° (WSW) 16:55:26 29.400- 29.500
HORYU 2 30 Jul 16:44:09 16:47:15 19° 64° (ENE) 16:50:21 437.375
STARS 30 Jul 16:51:40 16:53:13 12° 90° (E) 16:54:46 437.465
PHONESAT 2.4 30 Jul 16:53:04 16:55:56 38° 161° (SSE) 16:58:50 2401.200-2431.200
SWISSCUBE 30 Jul 16:54:40 16:58:56 34° 291° (WNW) 17:03:11 437.505
RS-15 30 Jul 16:57:04 17:09:22 74° 243° (WSW) 17:21:27 29.354- 29.394
BEESAT 30 Jul 17:15:59 17:19:46 24° 294° (WNW) 17:23:33 436.000
MOZHAYETS 4 30 Jul 17:22:31 17:27:03 59° 100° (E) 17:31:33
ITUPSAT 1 30 Jul 17:42:39 17:45:13 15° 299° (WNW) 17:47:46 437.325
SO-50 30 Jul 17:56:34 18:00:42 33° 246° (WSW) 18:04:43 436.795
KKS-1 30 Jul 17:57:20 18:01:49 65° 286° (WNW) 18:06:15 437.445
LilacSat-2 30 Jul 18:00:22 18:02:15 13° 65° (ENE) 18:04:07 437.200
BEESAT 3 30 Jul 18:06:29 18:09:59 32° 115° (ESE) 18:13:32 437.485
NOAA 18 30 Jul 18:07:47 18:12:19 27° 64° (ENE) 18:16:52 137.9125
Cosmos 2499 30 Jul 18:09:29 18:16:50 29° 291° (WNW) 18:24:02 435.465 / 435.565
GONETS M04 30 Jul 18:11:49 18:18:08 22° 296° (WNW) 18:24:32
Cubesat XI-IV 30 Jul 18:16:52 18:21:29 30° 66° (ENE) 18:26:06 437.490
HORYU 2 30 Jul 18:19:11 18:23:27 44° 261° (W) 18:27:47 437.375
BEESAT 2 30 Jul 18:20:40 18:23:53 24° 113° (ESE) 18:27:09 435.950
STARS 30 Jul 18:25:35 18:29:59 64° 286° (WNW) 18:34:22 437.465
PHONESAT 2.4 30 Jul 18:29:13 18:32:18 80° 179° (S) 18:35:23 2401.200-2431.200
AO-7 30 Jul 18:36:56 18:41:00 14° 272° (W) 18:45:07 29.400- 29.500
CUTE-I 30 Jul 18:38:40 18:43:46 47° 70° (ENE) 18:48:54 437.470
BRITE-PL 30 Jul 18:43:28 18:47:36 79° 76° (ENE) 18:51:49 437.365/2234.400
NOAA 15 30 Jul 18:46:03 18:51:16 72° 73° (ENE) 18:56:30 137.62
CUBESAT XI-V 30 Jul 18:52:09 18:56:45 65° 101° (E) 19:01:21 437.345
DOVE 4 30 Jul 19:00:01 19:03:31 24° 66° (ENE) 19:07:10 437.250
MOZHAYETS 4 30 Jul 19:01:15 19:03:43 14° 297° (WNW) 19:06:10
RS-15 30 Jul 19:12:44 19:19:36 17° 264° (W) 19:26:26 29.354- 29.394
PCSat 30 Jul 19:21:04 19:26:21 57° 114° (ESE) 19:31:41 145.827
GOMX 1 30 Jul 19:25:43 19:29:56 84° 260° (W) 19:34:21 467.674
LilacSat-2 30 Jul 19:32:23 19:36:08 47° 261° (W) 19:39:54 437.200
SEEDS 30 Jul 19:43:50 19:44:19 10° 62° (ENE) 19:44:47 437.485
BEESAT 3 30 Jul 19:44:31 19:47:42 23° 313° (NW) 19:50:56 437.485
NOAA 18 30 Jul 19:47:28 19:52:43 44° 261° (W) 19:58:01 137.9125
HO-68 30 Jul 19:52:21 19:58:50 38° 64° (ENE) 20:05:21 435.675
Cubesat XI-IV 30 Jul 19:56:30 20:01:25 36° 263° (W) 20:06:22 437.490
BEESAT 2 30 Jul 19:58:06 20:01:36 30° 310° (NW) 20:05:09 435.950
O/OREOS (USA 219) 30 Jul 20:00:08 20:03:18 19° 101° (E) 20:06:28 437.305
PHONESAT 2.4 30 Jul 20:05:42 20:08:44 54° 194° (SSW) 20:11:45 2401.200-2431.200
AAUSAT CUBESAT 2 30 Jul 20:11:42 20:13:05 11° 63° (ENE) 20:14:26 437.432
YUBILEINY 30 Jul 20:17:31 20:24:53 28° 67° (ENE) 20:32:11 435.215
STRAND 1 30 Jul 20:17:51 20:22:17 29° 96° (E) 20:26:40 437.568
CINEMA 3 30 Jul 20:19:21 20:23:45 47° 72° (ENE) 20:28:22 145.822/145.860
CUTE-I 30 Jul 20:19:53 20:24:02 22° 267° (W) 20:28:11 437.470
NOAA 15 30 Jul 20:29:00 20:31:34 14° 270° (W) 20:34:07 137.62
CANX-2 30 Jul 20:30:44 20:34:54 55° 74° (ENE) 20:39:05 2200.000
CUBESAT XI-V 30 Jul 20:31:17 20:33:35 14° 297° (WNW) 20:35:54 437.345
UWE-3 30 Jul 20:31:51 20:34:17 14° 62° (ENE) 20:36:42 435.000/436.395/437.385
DOVE 4 30 Jul 20:37:09 20:41:02 32° 265° (W) 20:45:10 437.250
CUTE 1.7 + AOD 2 30 Jul 20:43:18 20:47:32 66° 75° (ENE) 20:51:45 437.475
AIST 2 30 Jul 20:53:25 20:57:23 50° 117° (ESE) 21:01:22 435.215
Oscar 11 30 Jul 20:57:06 20:59:43 16° 65° (ENE) 21:02:20 145.826/435.025
CUBEBUG 2 30 Jul 21:00:06 21:04:24 38° 70° (ENE) 21:08:47 437.445
PCSat 30 Jul 21:05:49 21:10:07 23° 313° (NW) 21:14:27 145.827
ISS 30 Jul 21:09:34 21:12:49 87° 141° (SE) 21:16:04 145.825
SEEDS 30 Jul 21:15:11 21:19:23 75° 258° (WSW) 21:23:37 437.485
COMPASS 1 30 Jul 21:19:30 21:23:41 84° 78° (ENE) 21:27:52 437.405
Cosmos 2504 30 Jul 21:27:42 21:33:59 24° 66° (ENE) 21:39:54 435.465 / 435.565
DELFI C3 30 Jul 21:34:56 21:37:21 16° 66° (ENE) 21:39:45 145.870
AUBIESAT-1 30 Jul 21:34:59 21:37:06 14° 57° (ENE) 21:39:18 437.475
O/OREOS (USA 219) 30 Jul 21:38:13 21:42:23 39° 298° (WNW) 21:46:36 437.305
PRISM 30 Jul 21:38:18 21:41:33 22° 95° (E) 21:44:48 437.425
HO-68 30 Jul 21:39:43 21:46:26 42° 261° (W) 21:53:14 435.675
Cosmos 2491 30 Jul 21:41:27 21:49:35 46° 88° (E) 21:57:44 435.465 / 435.565
PHONESAT 2.4 30 Jul 21:42:51 21:44:50 16° 209° (SSW) 21:46:49 2401.200-2431.200
AAUSAT CUBESAT 2 30 Jul 21:43:54 21:48:01 64° 259° (W) 21:52:08 437.432
AO-85 30 Jul 21:51:43 21:55:24 24° 45° (NE) 21:58:50 145.980
FUNcube-1 30 Jul 21:53:54 21:58:22 59° 74° (ENE) 22:02:54 145.935
STRAND 1 30 Jul 21:56:54 22:01:26 33° 292° (WNW) 22:05:57 437.568
ZACube-1 30 Jul 21:57:03 22:01:35 68° 74° (ENE) 22:06:10 437.345
CINEMA 3 30 Jul 21:58:04 22:01:10 18° 270° (W) 22:04:21 145.822/145.860
UWE-3 30 Jul 22:05:35 22:10:09 65° 259° (W) 22:14:49 435.000/436.395/437.385
CANX-2 30 Jul 22:09:13 22:11:05 13° 270° (W) 22:12:57 2200.000
YUBILEINY 30 Jul 22:13:37 22:22:19 65° 268° (W) 22:30:56 435.215
CUTE 1.7 + AOD 2 30 Jul 22:23:10 22:23:47 10° 271° (W) 22:24:24 437.475
Oscar 11 30 Jul 22:31:14 22:35:27 48° 261° (W) 22:39:40 145.826/435.025
AIST 2 30 Jul 22:33:12 22:36:08 19° 316° (NW) 22:39:05 435.215
HUMSAT D 30 Jul 22:36:54 22:40:55 39° 72° (ENE) 22:44:56 437.325/437.525
CUBEBUG 2 30 Jul 22:37:33 22:41:07 22° 267° (W) 22:44:46 437.445
M-CUBED/EXP-1 PRIME 30 Jul 22:44:32 22:48:24 85° 254° (WSW) 22:52:38 437.505
ISS 30 Jul 22:47:07 22:49:36 20° 342° (NNW) 22:52:05 145.825
ANTELSAT 30 Jul 23:00:06 23:03:05 17° 91° (E) 23:06:00 437.575/2403.000
AUBIESAT-1 30 Jul 23:07:11 23:11:01 56° 256° (WSW) 23:15:10 437.475
DELFI C3 30 Jul 23:08:08 23:11:53 40° 262° (W) 23:15:38 145.870
PRISM 30 Jul 23:13:19 23:16:51 29° 291° (WNW) 23:20:24 437.425
Cosmos 2504 30 Jul 23:20:10 23:28:07 67° 267° (W) 23:35:29 435.465 / 435.565
50 SAT 30 Jul 23:26:36 23:27:51 11° 65° (ENE) 23:29:07 437.505
AISAT 30 Jul 23:28:48 23:31:32 16° 64° (ENE) 23:34:17 437.250
AO-85 30 Jul 23:32:00 23:35:56 35° 246° (WSW) 23:39:35 145.980
FUNcube-1 30 Jul 23:32:43 23:34:58 14° 270° (W) 23:37:15 145.935
ZACube-1 30 Jul 23:36:41 23:38:18 12° 271° (W) 23:39:56 437.345
Cosmos 2491 30 Jul 23:38:33 23:46:30 39° 288° (WNW) 23:54:31 435.465 / 435.565
TIGRISAT 30 Jul 23:39:30 23:43:53 42° 98° (E) 23:48:08 435.000
SPROUT 30 Jul 23:47:06 23:48:09 11° 61° (ENE) 23:49:12 437.525
UNISAT 6 30 Jul 23:57:08 00:01:44 70° 101° (E) 00:06:13 437.425
CUBEBUG 1 31 Jul 00:08:29 00:12:35 44° 72° (ENE) 00:16:43 437.445
HUMSAT D 31 Jul 00:13:43 00:16:40 18° 267° (W) 00:19:37 437.325/437.525
YUBILEINY 31 Jul 00:15:31 00:17:12 11° 288° (WNW) 00:18:52 435.215
NANOSAT C BR1 31 Jul 00:15:51 00:18:23 15° 92° (E) 00:20:54 145.865
VELOX 1 31 Jul 00:18:01 00:22:15 50° 72° (ENE) 00:26:31 145.980
DUCHIFAT 1 31 Jul 00:18:07 00:20:37 15° 92° (E) 00:23:05 145.980
ESTCUBE 1 31 Jul 00:18:41 00:23:11 89° 65° (ENE) 00:27:41 437.505/2401.250
ISS 31 Jul 00:25:20 00:26:58 13° 2° (N) 00:28:37 145.825
ANTELSAT 31 Jul 00:35:38 00:40:02 46° 288° (WNW) 00:44:20 437.575/2403.000
QB50P1 31 Jul 00:39:44 00:43:31 30° 96° (E) 00:47:16 145.935-145.965
JAS-2 31 Jul 00:41:04 00:43:08 12° 91° (E) 00:45:16 435.910
POPSAT HIP 1 31 Jul 00:46:29 00:50:26 35° 98° (E) 00:54:20 437.405
DX 1 31 Jul 00:48:13 00:52:32 80° 75° (ENE) 00:56:53 434.975-435.025
UKube-1 31 Jul 00:54:00 00:58:17 73° 74° (ENE) 01:02:35 .
50 SAT 31 Jul 00:57:31 01:01:03 47° 260° (W) 01:04:36 437.505
AIST 1 31 Jul 01:00:36 01:04:58 73° 82° (E) 01:09:20
AISAT 31 Jul 01:03:23 01:07:36 48° 260° (W) 01:11:54 437.250
QB50P2 31 Jul 01:08:17 01:12:33 68° 101° (E) 01:16:48 145.880/145.840
POLYITAN 1 31 Jul 01:10:55 01:15:12 69° 101° (E) 01:19:27 437.675
TIGRISAT 31 Jul 01:16:56 01:20:14 20° 295° (WNW) 01:23:29 435.000
SPROUT 31 Jul 01:19:12 01:23:28 74° 258° (WSW) 01:27:47 437.525
UNISAT 6 31 Jul 01:35:50 01:37:49 13° 299° (WNW) 01:39:47 437.425
CUBEBUG 1 31 Jul 01:46:28 01:49:06 16° 268° (W) 01:51:44 437.445
BUGSAT 1 31 Jul 01:49:22 01:53:38 72° 102° (ESE) 01:57:53 437.445
NANOSAT C BR1 31 Jul 01:50:16 01:54:21 45° 288° (WNW) 01:58:24 145.865
DUCHIFAT 1 31 Jul 01:52:27 01:56:32 45° 288° (WNW) 02:00:35 145.980
VELOX 1 31 Jul 01:56:34 01:59:00 15° 268° (W) 02:01:27 145.980
TISAT 1 31 Jul 01:59:18 02:03:28 72° 75° (ENE) 02:07:42 437.305
ISS 31 Jul 02:01:34 02:04:17 24° 22° (NNE) 02:07:00 145.825
Cosmos 2499 31 Jul 02:07:49 02:13:21 21° 64° (ENE) 02:18:36 435.465 / 435.565
QB50P1 31 Jul 02:15:43 02:19:09 24° 292° (WNW) 02:22:33 145.935-145.965
GONETS M04 31 Jul 02:22:08 02:30:19 40° 73° (ENE) 02:38:29
POPSAT HIP 1 31 Jul 02:22:47 02:25:59 21° 294° (WNW) 02:29:10 437.405
JAS-2 31 Jul 02:23:19 02:28:44 83° 285° (WNW) 02:34:42 435.910
SWISSCUBE 31 Jul 02:23:31 02:27:38 29° 68° (ENE) 02:31:46 437.505
BEESAT 3 31 Jul 02:23:46 02:26:53 21° 46° (NE) 02:29:58 437.485
BEESAT 2 31 Jul 02:38:36 02:41:23 18° 44° (NE) 02:44:09 435.950
BEESAT 31 Jul 02:43:57 02:48:26 42° 70° (ENE) 02:52:57 436.000
QB50P2 31 Jul 02:46:16 02:47:47 12° 298° (WNW) 02:49:17 145.880/145.840
POLYITAN 1 31 Jul 02:48:59 02:50:24 11° 298° (WNW) 02:51:50 437.675
Oscar 19 31 Jul 03:01:36 03:06:45 63° 102° (ESE) 03:11:54 437.125/150
ITUPSAT 1 31 Jul 03:09:35 03:14:22 75° 75° (ENE) 03:19:10 437.325
Gurwin Techsat 1B 31 Jul 03:16:32 03:21:31 39° 98° (E) 03:26:27 435.225
KKS-1 31 Jul 03:21:46 03:23:25 12° 61° (ENE) 03:25:05 437.445
BUGSAT 1 31 Jul 03:27:11 03:28:24 11° 298° (WNW) 03:29:38 437.445
ISS 31 Jul 03:37:43 03:40:55 56° 219° (SW) 03:44:06 145.825
STARS 31 Jul 03:48:58 03:50:22 11° 61° (ENE) 03:51:48 437.465
Cosmos 2499 31 Jul 03:59:41 04:07:23 73° 266° (W) 04:14:32 435.465 / 435.565
DANDE 31 Jul 04:00:23 04:03:51 19° 95° (E) 04:06:47 436.750
BEESAT 3 31 Jul 04:00:59 04:04:40 37° 244° (WSW) 04:08:18 437.485
SWISSCUBE 31 Jul 04:01:12 04:05:21 29° 264° (W) 04:09:32 437.505
PCSat 31 Jul 04:08:59 04:14:12 45° 55° (NE) 04:19:23 145.827
JAS-2 31 Jul 04:11:32 04:13:07 11° 301° (WNW) 04:14:46 435.910
BEESAT 2 31 Jul 04:15:36 04:19:29 49° 242° (WSW) 04:23:20 435.950
GONETS M04 31 Jul 04:18:59 04:27:10 45° 272° (W) 04:35:23
BEESAT 31 Jul 04:22:50 04:26:22 20° 266° (W) 04:29:56 436.000
MOZHAYETS 4 31 Jul 04:23:59 04:28:30 56° 73° (ENE) 04:33:02
CUSAT 1 31 Jul 04:39:17 04:42:52 45° 280° (W) 04:45:47 437.405
AO-7 31 Jul 04:40:45 04:48:18 37° 98° (E) 04:55:46 29.400- 29.500
Oscar 19 31 Jul 04:42:17 04:45:32 17° 298° (WNW) 04:48:49 437.125/150
ITAMSAT 1 31 Jul 04:45:20 04:50:34 85° 105° (ESE) 04:55:44 435.822/435.867
ITUPSAT 1 31 Jul 04:51:16 04:52:43 11° 270° (W) 04:54:11 437.325
KKS-1 31 Jul 04:54:57 04:59:22 72° 258° (WSW) 05:03:51 437.445
Gurwin Techsat 1B 31 Jul 04:56:51 05:01:16 27° 294° (WNW) 05:05:40 435.225
RS-15 31 Jul 05:13:25 05:20:00 17° 96° (E) 05:26:45 29.354- 29.394
AIST 2 31 Jul 05:14:48 05:18:37 33° 50° (NE) 05:22:25 435.215
STARS 31 Jul 05:21:43 05:26:06 75° 258° (WSW) 05:30:32 437.465
DANDE 31 Jul 05:42:02 05:46:33 33° 281° (WNW) 05:50:04 436.750
PCSat 31 Jul 05:52:56 05:57:19 25° 252° (WSW) 06:01:41 145.827
CUBESAT XI-V 31 Jul 05:55:08 05:59:40 61° 74° (ENE) 06:04:13 437.345
Cosmos 2499 31 Jul 05:57:14 05:58:49 11° 286° (WNW) 06:00:23 435.465 / 435.565
MOZHAYETS 4 31 Jul 06:03:29 06:06:00 14° 269° (W) 06:08:31
O/OREOS (USA 219) 31 Jul 06:08:44 06:12:59 38° 62° (ENE) 06:17:14 437.305
HORYU 2 31 Jul 06:10:08 06:14:12 33° 97° (E) 06:18:13 437.375
ITAMSAT 1 31 Jul 06:26:59 06:29:17 13° 301° (WNW) 06:31:35 435.822/435.867
AO-7 31 Jul 06:33:16 06:41:15 52° 296° (WNW) 06:49:10 29.400- 29.500
Cubesat XI-IV 31 Jul 06:36:36 06:37:49 11° 88° (E) 06:39:00 437.490
BRITE-PL 31 Jul 06:47:14 06:51:33 28° 96° (E) 06:56:04 437.365/2234.400
AIST 2 31 Jul 06:53:34 06:56:56 24° 247° (WSW) 07:00:18 435.215
CUTE-I 31 Jul 06:56:45 07:00:21 18° 92° (E) 07:03:56 437.470
NOAA 15 31 Jul 07:01:43 07:06:08 27° 95° (E) 07:10:33 137.62
LilacSat-2 31 Jul 07:06:36 07:09:17 18° 93° (E) 07:11:56 437.200
RS-15 31 Jul 07:18:49 07:30:12 77° 117° (ESE) 07:42:16 29.354- 29.394
GOMX 1 31 Jul 07:26:43 07:31:23 32° 96° (E) 07:36:11 467.674
STRAND 1 31 Jul 07:33:27 07:38:16 42° 70° (ENE) 07:43:06 437.568
CUBESAT XI-V 31 Jul 07:35:22 07:37:26 13° 270° (W) 07:39:32 437.345
HORYU 2 31 Jul 07:47:03 07:50:34 23° 294° (WNW) 07:54:04 437.375
O/OREOS (USA 219) 31 Jul 07:48:44 07:52:07 21° 259° (WSW) 07:55:30 437.305
Cosmos 2491 31 Jul 07:52:10 07:58:45 23° 65° (ENE) 08:05:17 435.465 / 435.565
NOAA 18 31 Jul 08:09:11 08:14:46 80° 104° (ESE) 08:20:16 137.9125
SO-50 31 Jul 08:09:30 08:14:22 79° 121° (ESE) 08:19:14 436.795
Cubesat XI-IV 31 Jul 08:13:11 08:18:34 89° 280° (W) 08:23:54 437.490
CINEMA 3 31 Jul 08:15:53 08:18:09 13° 88° (E) 08:20:25 145.822/145.860
BRITE-PL 31 Jul 08:25:30 08:30:00 36° 289° (WNW) 08:34:49 437.365/2234.400
PRISM 31 Jul 08:28:21 08:30:59 17° 65° (ENE) 08:33:36 437.425
AO-7 31 Jul 08:29:24 08:32:04 12° 318° (NW) 08:34:44 29.400- 29.500
CUTE 1.7 + AOD 2 31 Jul 08:30:38 08:31:55 11° 90° (E) 08:33:11 437.475
DOVE 4 31 Jul 08:34:38 08:39:52 68° 101° (E) 08:45:10 437.250
CUTE-I 31 Jul 08:35:32 08:40:45 56° 288° (WNW) 08:45:56 437.470
LilacSat-2 31 Jul 08:40:13 08:43:39 31° 289° (WNW) 08:47:01 437.200
NOAA 15 31 Jul 08:41:08 08:45:59 38° 291° (WNW) 08:50:49 137.62
SEEDS 31 Jul 09:00:07 09:02:56 17° 93° (E) 09:05:43 437.485
COMPASS 1 31 Jul 09:04:04 09:06:03 13° 91° (E) 09:08:01 437.405
GOMX 1 31 Jul 09:04:47 09:09:22 33° 291° (WNW) 09:14:08 467.674
HO-68 31 Jul 09:07:04 09:13:44 39° 98° (E) 09:20:20 435.675
STRAND 1 31 Jul 09:13:33 09:17:35 23° 266° (W) 09:21:39 437.568
YUBILEINY 31 Jul 09:18:51 09:26:16 32° 83° (E) 09:33:42 435.215
AAUSAT CUBESAT 2 31 Jul 09:26:59 09:29:57 19° 93° (E) 09:32:54 437.432
RS-15 31 Jul 09:33:13 09:43:53 39° 324° (NW) 09:55:05 29.354- 29.394
FUNcube-1 31 Jul 09:44:42 09:45:59 11° 89° (E) 09:47:14 145.935
ZACube-1 31 Jul 09:47:28 09:49:36 13° 90° (E) 09:51:41 437.345
Cosmos 2491 31 Jul 09:47:47 09:56:33 79° 265° (W) 10:05:20 435.465 / 435.565
CINEMA 3 31 Jul 09:50:46 09:55:47 72° 285° (WNW) 10:00:42 145.822/145.860
CANX-2 31 Jul 09:51:26 09:55:38 72° 285° (WNW) 09:59:48 2200.000
NOAA 18 31 Jul 09:51:38 09:54:42 15° 302° (WNW) 09:57:46 137.9125
SO-50 31 Jul 09:52:09 09:55:24 18° 319° (NW) 09:58:40 436.795
Cubesat XI-IV 31 Jul 09:55:39 09:57:50 13° 302° (WNW) 10:00:01 437.490
UWE-3 31 Jul 09:55:58 09:59:48 26° 94° (E) 10:03:32 435.000/436.395/437.385
ANTELSAT 31 Jul 09:59:00 10:01:56 17° 63° (ENE) 10:04:53 437.575/2403.000
PRISM 31 Jul 10:02:11 10:05:59 39° 261° (W) 10:09:49 437.425
CUTE 1.7 + AOD 2 31 Jul 10:03:59 10:08:08 59° 285° (WNW) 10:12:15 437.475
Cosmos 2504 31 Jul 10:06:11 10:12:26 22° 79° (E) 10:18:36 435.465 / 435.565
DOVE 4 31 Jul 10:13:47 10:17:00 17° 297° (WNW) 10:20:15 437.250
Oscar 11 31 Jul 10:18:40 10:22:26 29° 96° (E) 10:26:11 145.826/435.025
